Total_Precipitation_Accumulation
0.00 0.01 0.08 0.20 0.47 0.85 1.01 0.68 0.51 0.48 0.50 0.51 0.45 0.42 0.45 0.41 0.49 0.74 0.53 0.34 0.13 0.03 0.02 0.05 0.10 0.10 0.10 0.10 0.10 0.10 0.09 0.09 0.09 0.08 0.06 0.05 0.04 0.04 0.03 0.03 0.02 0.03 0.04 0.04 0.04 0.04 0.04 0.04 0.03
0.01 0.02 0.10 0.24 0.57 0.96 1.02 0.59 0.34 0.42 0.49 0.62 0.61 0.47 0.38 0.37 0.38 0.30 0.27 0.39 0.11 0.03 0.02 0.02 0.07 0.09 0.09 0.08 0.10 0.10 0.09 0.09 0.07 0.06 0.05 0.04 0.04 0.04 0.04 0.03 0.03 0.04 0.04 0.05 0.04 0.03 0.03 0.03 0.03
0.01 0.05 0.12 0.21 0.45 0.64 0.75 0.46 0.35 0.30 0.47 0.70 0.67 0.44 0.40 0.45 0.36 0.24 0.23 0.32 0.13 0.06 0.03 0.03 0.06 0.07 0.07 0.09 0.10 0.09 0.09 0.08 0.07 0.06 0.05 0.04 0.04 0.05 0.05 0.05 0.05 0.05 0.06 0.07 0.06 0.04 0.04 0.03 0.03
0.01 0.08 0.13 0.19 0.19 0.21 0.34 0.40 0.42 0.41 0.59 0.72 0.58 0.47 0.44 0.45 0.39 0.25 0.22 0.33 0.16 0.09 0.04 0.05 0.08 0.09 0.09 0.09 0.09 0.10 0.10 0.09 0.08 0.06 0.05 0.04 0.04 0.05 0.06 0.06 0.07 0.08 0.09 0.09 0.08 0.07 0.07 0.06 0.04
0.01 0.06 0.11 0.13 0.13 0.12 0.17 0.24 0.32 0.48 0.65 0.76 0.65 0.59 0.58 0.43 0.35 0.28 0.19 0.31 0.20 0.12 0.07 0.07 0.10 0.11 0.11 0.10 0.11 0.11 0.10 0.10 0.08 0.07 0.06 0.06 0.06 0.06 0.07 0.06 0.07 0.08 0.10 0.12 0.14 0.12 0.11 0.09 0.06
0.01 0.04 0.06 0.05 0.05 0.07 0.13 0.19 0.34 0.53 0.55 0.63 0.73 0.76 0.64 0.45 0.39 0.32 0.27 0.34 0.26 0.14 0.06 0.07 0.11 0.12 0.12 0.13 0.14 0.13 0.12 0.11 0.10 0.09 0.09 0.10 0.09 0.10 0.09 0.08 0.08 0.09 0.10 0.13 0.16 0.18 0.16 0.13 0.12
0.00 0.01 0.01 0.01 0.02 0.05 0.14 0.26 0.31 0.44 0.50 0.70 0.75 0.73 0.64 0.59 0.50 0.40 0.42 0.57 0.48 0.29 0.12 0.08 0.08 0.11 0.12 0.15 0.18 0.18 0.17 0.15 0.14 0.12 0.12 0.12 0.13 0.14 0.16 0.16 0.14 0.14 0.16 0.16 0.18 0.20 0.23 0.20 0.17
0.00 0.00 0.00 0.00 0.01 0.05 0.13 0.21 0.30 0.43 0.55 0.60 0.68 0.76 0.67 0.63 0.57 0.61 0.69 0.87 0.85 0.60 0.30 0.14 0.11 0.15 0.18 0.17 0.18 0.20 0.20 0.19 0.18 0.18 0.17 0.19 0.22 0.25 0.30 0.29 0.26 0.28 0.30 0.29 0.27 0.26 0.30 0.35 0.33
0.00 0.00 0.00 0.00 0.01 0.08 0.16 0.22 0.27 0.31 0.40 0.58 0.76 0.85 0.73 0.62 0.61 0.71 0.82 0.93 0.90 0.66 0.49 0.36 0.29 0.24 0.25 0.26 0.23 0.26 0.27 0.28 0.28 0.34 0.35 0.35 0.40 0.48 0.56 0.55 0.55 0.55 0.57 0.62 0.61 0.57 0.60 0.64 0.56
0.00 0.00 0.00 0.00 0.00 0.03 0.10 0.20 0.25 0.36 0.53 0.98 1.24 1.08 0.86 0.76 0.77 0.85 0.88 0.81 0.80 0.75 0.67 0.68 0.53 0.45 0.47 0.49 0.48 0.52 0.52 0.58 0.57 0.72 0.77 0.80 0.86 0.71 0.60 0.79 0.93 0.91 1.01 1.08 1.14 1.33 1.25 1.08 0.86
0.00 0.00 0.00 0.00 0.00 0.01 0.05 0.12 0.23 0.39 0.75 1.27 1.48 1.15 0.99 0.93 0.90 0.90 1.01 0.96 0.99 0.92 0.82 0.92 0.76 0.72 0.76 0.74 0.72 0.80 0.91 1.02 1.03 1.08 1.19 1.34 1.32 1.07 0.90 1.11 1.35 1.35 1.41 1.43 1.70 1.93 1.55 1.43 1.36
0.00 0.00 0.00 0.00 0.00 0.01 0.04 0.11 0.28 0.53 0.92 1.20 1.10 0.89 0.89 1.07 1.05 1.06 1.18 1.29 1.28 1.23 1.21 1.12 1.03 1.06 1.11 1.02 0.97 0.91 0.87 0.96 1.03 1.13 1.22 1.56 1.61 1.55 1.49 1.52 1.46 1.62 1.72 1.93 2.00 2.00 1.82 1.79 1.70
0.00 0.00 0.00 0.00 0.00 0.02 0.06 0.13 0.32 0.61 0.84 0.88 0.74 0.76 0.94 1.16 1.20 1.36 1.51 1.57 1.53 1.68 1.85 1.73 1.60 1.39 1.28 1.24 1.06 0.95 0.91 0.87 0.85 1.03 1.18 1.51 1.71 1.75 1.83 1.55 1.47 1.44 1.64 1.89 1.85 1.73 1.78 1.88 1.90
0.00 0.00 0.01 0.01 0.02 0.04 0.07 0.14 0.30 0.49 0.61 0.63 0.67 0.85 0.98 1.19 1.29 1.46 1.69 1.91 2.04 2.21 2.38 2.27 2.07 1.81 1.59 1.42 1.28 1.22 1.09 0.93 0.79 0.93 1.01 1.40 1.69 1.66 1.54 1.53 1.53 1.45 1.60 1.65 1.73 1.77 1.92 1.96 2.06
0.00 0.01 0.06 0.07 0.05 0.06 0.07 0.18 0.37 0.56 0.67 0.60 0.73 0.88 1.09 1.31 1.53 1.72 1.84 2.23 2.51 2.70 2.79 2.75 2.63 2.34 2.07 1.86 1.63 1.41 1.26 1.08 0.98 0.93 0.93 1.23 1.49 1.55 1.57 1.50 1.39 1.43 1.53 1.61 1.68 1.71 1.78 1.68 1.74
0.02 0.05 0.15 0.16 0.10 0.10 0.11 0.37 0.67 0.66 0.65 0.68 0.78 1.03 1.28 1.50 1.83 1.85 1.95 2.25 2.52 2.86 3.21 3.23 2.86 2.57 2.33 2.07 1.79 1.62 1.54 1.43 1.25 0.99 0.90 0.97 1.16 1.31 1.35 1.24 1.23 1.33 1.26 1.25 1.30 1.28 1.32 1.34 1.47
0.05 0.09 0.15 0.24 0.15 0.12 0.22 0.69 0.98 0.74 0.56 0.67 0.86 1.06 1.40 1.63 1.95 1.94 1.98 2.10 2.44 3.05 3.66 3.59 3.13 2.68 2.36 2.13 1.95 1.81 1.67 1.42 1.24 1.07 0.97 0.87 0.82 0.79 0.84 0.81 0.84 0.91 0.92 0.92 0.90 1.05 1.12 1.16 1.27
0.04 0.10 0.22 0.34 0.21 0.19 0.29 0.65 0.68 0.60 0.72 0.70 0.75 0.92 1.18 1.28 1.50 1.66 1.84 2.16 2.75 3.58 4.11 3.94 3.33 2.82 2.44 2.17 1.93 1.67 1.48 1.27 1.10 1.01 0.93 0.72 0.67 0.62 0.59 0.57 0.58 0.57 0.61 0.67 0.71 0.74 0.84 0.87 0.92
0.04 0.09 0.22 0.26 0.19 0.28 0.35 0.54 0.63 0.71 0.85 0.85 0.73 0.75 1.00 1.14 1.31 1.56 2.04 2.73 3.56 4.20 4.26 3.73 3.16 2.78 2.36 1.98 1.43 1.07 0.88 0.78 0.71 0.59 0.52 0.47 0.42 0.44 0.46 0.41 0.41 0.40 0.39 0.41 0.45 0.52 0.57 0.60 0.69
0.06 0.08 0.19 0.26 0.18 0.21 0.34 0.64 0.89 0.84 0.77 0.73 0.73 0.67 0.81 1.14 1.53 2.03 2.88 3.40 3.41 3.29 2.80 2.31 2.03 1.80 1.45 1.12 0.80 0.63 0.52 0.43 0.38 0.35 0.36 0.34 0.30 0.30 0.30 0.30 0.31 0.31 0.30 0.30 0.33 0.36 0.37 0.40 0.51
0.10 0.10 0.18 0.25 0.15 0.16 0.35 0.78 1.01 0.97 0.75 0.62 0.60 0.53 0.74 1.15 1.70 2.39 2.85 2.82 2.30 1.79 1.51 1.32 1.23 0.94 0.75 0.65 0.52 0.43 0.34 0.29 0.27 0.26 0.26 0.24 0.21 0.22 0.23 0.23 0.24 0.27 0.28 0.29 0.33 0.32 0.33 0.32 0.34
0.09 0.06 0.06 0.09 0.15 0.33 0.50 0.99 1.10 0.88 0.79 0.62 0.58 0.55 0.64 0.89 1.18 1.53 1.69 1.47 1.36 1.28 1.18 1.12 1.03 0.72 0.56 0.47 0.39 0.31 0.26 0.24 0.23 0.21 0.21 0.19 0.17 0.18 0.17 0.17 0.16 0.18 0.23 0.29 0.29 0.34 0.34 0.32 0.26
0.04 0.03 0.04 0.11 0.22 0.41 0.59 0.82 0.90 0.68 0.77 0.57 0.43 0.42 0.44 0.59 0.66 0.69 0.73 0.72 0.72 0.74 0.82 0.88 0.89 0.76 0.58 0.48 0.42 0.34 0.27 0.24 0.21 0.21 0.21 0.21 0.20 0.18 0.18 0.18 0.17 0.15 0.16 0.20 0.23 0.31 0.35 0.36 0.31
0.03 0.05 0.12 0.23 0.39 0.85 0.80 0.79 0.94 0.81 0.80 0.59 0.40 0.32 0.36 0.48 0.53 0.51 0.46 0.45 0.49 0.53 0.51 0.58 0.73 0.81 0.71 0.61 0.51 0.43 0.33 0.28 0.24 0.22 0.21 0.20 0.18 0.18 0.17 0.18 0.19 0.19 0.18 0.15 0.15 0.20 0.27 0.34 0.36
0.05 0.07 0.24 0.56 0.92 1.06 0.65 0.72 0.94 0.69 0.59 0.43 0.23 0.17 0.28 0.45 0.54 0.51 0.43 0.35 0.33 0.36 0.35 0.33 0.36 0.47 0.49 0.44 0.43 0.44 0.40 0.32 0.25 0.21 0.17 0.18 0.16 0.16 0.16 0.17 0.18 0.19 0.20 0.19 0.17 0.16 0.19 0.26 0.32
0.05 0.03 0.10 0.20 0.28 0.43 0.54 0.85 0.96 0.66 0.41 0.19 0.09 0.07 0.20 0.30 0.31 0.30 0.27 0.21 0.15 0.14 0.17 0.18 0.19 0.21 0.25 0.24 0.24 0.26 0.28 0.22 0.18 0.23 0.18 0.18 0.21 0.22 0.21 0.16 0.15 0.17 0.18 0.18 0.18 0.17 0.17 0.21 0.26
0.05 0.03 0.04 0.07 0.11 0.28 0.58 0.82 0.71 0.53 0.34 0.16 0.08 0.06 0.07 0.09 0.11 0.12 0.14 0.13 0.11 0.10 0.10 0.11 0.13 0.15 0.16 0.17 0.15 0.15 0.19 0.19 0.17 0.18 0.18 0.16 0.22 0.23 0.21 0.18 0.15 0.15 0.16 0.17 0.18 0.18 0.20 0.23 0.26
0.05 0.04 0.04 0.04 0.10 0.19 0.40 0.72 0.78 0.57 0.37 0.16 0.10 0.08 0.07 0.08 0.08 0.08 0.08 0.08 0.07 0.08 0.09 0.12 0.14 0.13 0.12 0.11 0.09 0.09 0.15 0.18 0.17 0.16 0.18 0.19 0.19 0.19 0.18 0.17 0.14 0.12 0.14 0.16 0.17 0.19 0.23 0.26 0.32
0.07 0.06 0.05 0.05 0.07 0.12 0.26 0.40 0.34 0.27 0.19 0.12 0.08 0.05 0.05 0.05 0.05 0.05 0.05 0.05 0.05 0.05 0.07 0.09 0.10 0.10 0.09 0.06 0.05 0.06 0.09 0.11 0.15 0.18 0.20 0.21 0.20 0.18 0.16 0.16 0.15 0.13 0.13 0.15 0.18 0.20 0.22 0.25 0.32
0.08 0.09 0.08 0.07 0.07 0.08 0.13 0.25 0.18 0.15 0.14 0.10 0.06 0.04 0.02 0.02 0.02 0.02 0.03 0.05 0.05 0.05 0.06 0.08 0.09 0.07 0.06 0.05 0.04 0.03 0.03 0.05 0.08 0.12 0.15 0.18 0.17 0.16 0.16 0.16 0.14 0.11 0.11 0.15 0.19 0.22 0.23 0.25 0.29